Погода в Нижневартовске

Погода в Нижневартовске : погода сейчас, прогноз погоды и архив. Всё, что Вы хотите узнать о погоде в Нижневартовске!

Поиск расширенной информации на нашем сайте:

Другие новости

Новости СМИ2

Главная страница сайта

Новости сайта

03.07.2017

Напоминаем, что на нашем специализированном сайте Метеоцентр.Азия вы можете получить высокодетализированные автоматические прогнозы погоды по пунктам России, СНГ и мира в авиационном формате (включающие направление и скорость ветра, видимость, явления погоды, количество и форму облачности, нижнюю и верхнюю границу облачности).

Рекомендуем: Отзывы: Горящие туры из кемерово - сезонные скидки.

Погода в Нижневартовске - сегодня

Время (UTC), дата Ветер
(°,м/с) 
Видим.   Явления Облачность Т
(°С)
Тd
(°С)
f(%) Тe
(°С)
Pmin
(гПа)
dP
(гПа)
Po
(мм)
O2
(г/м3)
Тmin Tmax R s Состояние
почвы
06 14.06.18 220 (ЮЗ) 20000 м    3/3 600 м верхняя 
[Cu med, cong|Ci sp]
+18.8 +5.8 42 +19  1005.2  -0.1  749  281           
09 14.06.18 170 (Ю) 20000 м    8/4 600 м верхняя 
[Cu med, cong|Ci sp]
+21.5 +5.1 34 +22  1004.9  -0.3  749  279           
12 14.06.18 140 (ЮВ) 20000 м    6/0 средняя 
[Ac trans]
+20.7 +5.3 36 +21  1005.1  0.2  749  280           
15 14.06.18 130 (ЮВ) 20000 м    10/0 средняя, верхняя 
[Ac trans|Ci sp]
+20 +5.9 40 +20  1005.3  0.2  749  280    +22       
18 14.06.18 130 (ЮВ) 20000 м    6/0 верхняя 
[Ci fib]
+16.3 +7.8 57 +17  1005.5  0.1  749  284           
21 14.06.18 070 (В) 20000 м    8/0 верхняя 
[Ci fib]
+13.3 +9.4 77 +15  1005.1  -0.4  749  286           
00 15.06.18 090 (В) 20000 м    10/0 средняя 
[Ac und]
+13.5 +11.1 85 +17  1004.9  -0.2  749  285           
06 15.06.18 120 (ЮВ) 20000 м    9/0 средняя 
[Ac trans]
+17.2 +8.9 58 +18  1004.8  0.2  749  282           
09 15.06.18 090 (В) 20000 м    10/0 средняя, верхняя 
[Ac trans|Ci sp]
+17.2 +8.9 58 +18  1004.9  0.1  749  282           
12 15.06.18 110 (В) 20000 м    8/0 верхняя 
[Ci fib]
+19.4 +8.5 49 +20  1004.1  -0.8  748  280           
15 15.06.18 080 (В) 20000 м    4/0 верхняя 
[Ci sp]
+18.3 +7.4 49 +19  1004.3  0.2  748  281           
18 15.06.18 060 (СВ) 20000 м    ясно 
+13.1 +8.2 72 +13  1003.8  -0.6  748  286           
21 15.06.18 070 (В) 20000 м    ясно 
+13.3 +11 86 +16  1003.3  -0.5  748  285           
00 16.06.18 090 (В) 20000 м    10/0 средняя 
[Ac trans]
+14.4 +11.2 81 +17  1002.9  -0.4  747  284           
18 16.06.18 280 (З) 7000 м  слаб. ливневой дождь  10/4 600 м кучево-дожд., средняя, верхняя 
[Cb calv|Ac trans|Ci fib]
+13.4 +12.5 94 +19  1005.2  -0.3  749  285           
03 17.06.18 230 (ЮЗ) 6{11}  20000 м  в посл. час ливневой дождь  10/8 210 м кучево-дожд., средняя 
[Cb calv|As op]
+10.4 +9.5 94 +10  1002.6  747  288  +10.4    38     
09 17.06.18 200 (Ю) 20000 м  в посл. час ливневой дождь  10/3 600 м кучево-дожд., средняя, верхняя 
[Cb calv|Ac trans|Ci sp]
+13.3 +7.6 68 +12  1006.4  2.5  750  287           
12 17.06.18 140 (ЮВ) 20000 м  {ливн. осадки}  ясно 
+16 +7.1 55 +17  1005.8  -0.6  749  284           
18 17.06.18 090 (В) 20000 м    3/0 средняя 
[Ac trans]
+13.8 +8 68 +13  1005.3  -0.2  749  286           
21 17.06.18 030 (СВ) 20000 м    10/0 средняя, верхняя 
[Ac trans|Ci fib]
+11 +8.8 86 +11  1004.2  -1.2  748  288           
00 18.06.18 020 (С) 20000 м    10/0 средняя, верхняя 
[Ac trans|Ci fib]
+11.6 +10.3 92 +14  1003.3  -0.8  748  287           
06 18.06.18 110 (В) 20000 м    8/3 600 м кучево-дожд., средняя 
[Cb calv|Ac trans]
+18 +10.4 61 +20  1001.4  -0.9  746  280           
15 18.06.18 360 (С) 20000 м  {ливн. осадки}  10/0 средняя, верхняя 
[Ac trans|Ci sp]
+17.5 +12.1 71 +22  1001.6  0.3  746  280    +21     
18 18.06.18 010 (С) 20000 м    4/0 средняя 
[Ac trans]
+14.5 +13.2 92 +21  1001.2  -0.4  746  283           
21 18.06.18 020 (С) 9000 м  слаб. дождь  10/0 средняя 
[As op]
+13.8 +12.7 93 +19  999.9  -1.3  745  283           
Время (UTC), дата Ветер
(°,м/с) 
Видим.   Явления Облачность Т
(°С)
Тd
(°С)
f(%) Тe
(°С)
Pmin
(гПа)
dP
(гПа)
Po
(мм)
O2
(г/м3)
Тmin Tmax R s Состояние
почвы

Для получения пояснительной информации подведите курсор к названию столбца.

ПОГОДА в Нижневартовске - архив

Всё, что Вы хотите узнать о погоде в Нижневартовске - удобно и подробно!

Выберите нужную дату (начиная с 1 января 2015* года) и нажмите кнопку "Найти".
Будут отображены архивные сводки погоды по пункту Нижневартовск, начиная с указанной даты.


Отображать данные в формате CSV (для использования в таблицах Excel)


Внимание! Наш архив погоды предназначен исключительно для личного некоммерческого использования в познавательных целях. Если Вам необходимы официальные справки о состоянии погоды (для производственных, юридических, коммерческих и т.п. целей), обращайтесь в органы Росгидромета.

*Примечание: данная дата относится к архиву по метеостанциям СССР (Россия, СНГ, Балтия).
Архив по метеостанциям Зарубежной Европы и Азии (кроме Китая) хранится 10 дней, по другим регионам земного шара (Китай, Африка, Америка, Австралия, Океания) - 1 день.

Нижневартовск - район местоположения метеостанции


Название, широта, долгота, высота метеостанции:
Нижневартовск 60.8°ш. 76.7°д. 44 м над ур. моря [Российская Федерация]

Дополнительная информация

В oтличие oт бoльшинства пoгoдных сайтoв мы публикуем пoдрoбную метеoинфoрмацию в детальнoм прoфессиoнальнoм фoрмате.

Характеристики температуры и влажнoсти вoздуха измеряются на высoте 2 м в тени вдали oт зданий и деревьев.
Скoрoсть ветра измеряется на высoте 10 м (на урoвне рoста челoвека скoрoсть ветра ниже в 1.5-2 раза). Если метеoстанция нахoдится в гoрoде или в лесу, тo скoрoсть ветра занижена на 2-4 м/с пo сравнению с oткрытым местoм. Скoрoсть ветра над акватoриями крупных рек и oзёр, а также на вершинах хoлмoв на 2-5 м/с выше, чем в oбычных услoвиях.
Атмoсфернoе давление в разных тoчках местнoсти мoжет значительнo oтличаться oт давления на метеoстанции, в зависимoсти oт услoвий рельефа (при пoдъёме на 10 м давление пoнижается примернo на 1 мм рт.ст.).